Location: Baia Mare
(47.6567°N, 23.5850°E)
Time: 20:01:00
(UTC+03:00)

ISS - Pass Details

Date: 15 September 2018
Orbit: 403 x 408 km, 51.6° (Epoch: 23 September)

Event Time Altitude Azimuth Distance (km) Brightness Sun altitude
Exits shadow 04:27:16 28° 79° (E) 793 -1.8 -25.0°
Drops below altitude 10° 04:29:03 10° 93° (E) 1,461 -0.4 -24.8°
Sets 04:31:10 0° 99° (E) 2,318 0.7 -24.5°
